Date,TemperatureHighF,TemperatureAvgF,TemperatureLowF,DewpointHighF,DewpointAvgF,DewpointLowF,HumidityHigh,HumidityAvg,HumidityLow,PressureMaxIn,PressureMinIn,WindSpeedMaxMPH,WindSpeedAvgMPH,GustSpeedMaxMPH,PrecipitationSumIn
2013-1-1,36.9,30.8,18.7,25.8,17.0,4.0,69,57,43,30.56,30.35,9,3,25,0.00
2013-1-2,30.6,19.4,11.5,14.0,7.2,0.0,73,59,47,30.73,30.53,8,2,17,0.00
2013-1-3,25.2,14.7,3.7,6.4,-2.2,-10.3,60,48,21,30.77,30.61,7,1,11,0.00
2013-1-4,39.2,29.4,19.2,22.9,18.3,6.2,79,63,49,30.62,29.89,8,2,18,0.00
2013-1-5,42.8,33.8,25.2,23.4,19.5,14.9,70,57,39,30.30,29.89,7,1,14,0.00
2013-1-6,44.1,33.3,25.2,28.3,24.7,16.5,93,71,51,30.27,29.98,6,1,13,0.00
2013-1-7,41.4,33.5,25.3,29.3,21.9,13.2,83,64,43,30.44,30.01,5,1,9,0.00
2013-1-8,45.9,36.0,24.6,28.7,25.2,15.4,81,65,47,30.41,30.30,8,2,25,0.00
2013-1-9,45.0,37.4,26.1,35.9,29.1,23.0,89,73,49,30.44,30.05,11,2,17,0.00
2013-1-10,47.7,40.3,32.0,28.1,23.3,20.7,67,51,35,30.57,30.11,10,2,24,0.02
2013-1-11,37.9,33.1,26.4,35.5,27.3,20.9,99,79,64,30.58,30.24,4,1,6,0.11
2013-1-12,41.2,38.7,35.8,40.9,38.5,35.5,99,99,99,30.27,30.16,2,0,3,0.05
2013-1-13,51.4,46.2,40.5,51.2,45.9,40.2,99,99,99,30.20,30.04,6,1,11,0.02
2013-1-14,60.8,50.2,39.2,54.1,42.4,26.8,99,77,38,30.29,29.91,8,2,18,0.00
2013-1-15,40.3,36.5,32.5,28.9,25.4,22.3,77,64,53,30.37,30.25,4,0,8,0.00
2013-1-16,57.9,32.2,28.8,57.7,26.4,7.9,99,82,19,30.29,28.75,12,0,17,22.44
2013-1-17,42.1,34.2,28.4,35.0,27.7,13.9,99,79,55,29.58,29.32,4,1,12,0.27
2013-1-18,28.4,21.9,16.9,15.0,1.4,-8.3,57,41,22,29.93,29.53,8,2,17,0.00
2013-1-19,46.9,36.2,19.0,32.7,21.8,4.0,75,56,37,29.86,29.38,9,3,21,0.00
2013-1-20,52.5,40.3,27.1,32.8,24.1,6.4,74,54,27,29.42,29.03,11,4,29,0.34
2013-1-21,28.0,23.2,19.0,20.0,9.6,2.7,94,58,35,29.58,29.27,7,1,15,0.00
2013-1-22,24.4,18.6,10.6,20.0,5.5,-7.1,96,60,29,29.56,29.24,8,2,21,0.00
2013-1-23,15.6,9.1,4.5,1.5,-7.9,-14.1,70,46,30,29.62,29.55,8,2,18,0.00
2013-1-24,19.6,9.6,0.9,-8.5,-11.0,-14.8,59,40,22,29.71,29.55,9,2,20,0.00
2013-1-25,23.2,14.6,6.1,10.9,-8.4,-16.3,81,37,17,29.79,29.53,6,1,14,0.00
2013-1-26,24.8,15.9,7.3,11.1,3.0,-5.0,87,60,31,29.73,29.49,6,2,13,0.00
2013-1-27,30.2,19.5,10.4,4.0,-0.4,-6.6,66,44,22,29.95,29.72,6,2,13,0.00
2013-1-28,51.4,23.4,17.4,25.5,6.8,-1.2,99,52,19,29.94,28.98,7,0,11,21.83
2013-1-29,32.5,29.2,24.6,32.3,29.0,24.4,99,99,98,29.50,29.30,2,0,4,0.05
2013-1-30,59.5,48.1,32.5,59.3,47.9,32.1,99,99,99,29.45,28.75,12,3,28,0.28
2013-1-31,60.8,47.3,30.0,60.5,37.6,13.4,99,72,36,28.90,28.30,24,5,52,5.42
2013-2-1,34.5,27.2,20.5,19.6,7.8,0.7,69,45,25,29.39,28.90,8,3,18,0.00
2013-2-2,29.8,23.0,15.3,14.1,5.6,1.3,67,47,33,29.55,29.34,8,2,14,0.00
2013-2-3,29.1,23.1,18.7,22.2,19.4,14.1,95,86,66,29.35,29.02,3,0,6,0.00
2013-2-4,36.5,22.8,18.9,21.1,11.2,-14.8,95,63,36,29.24,29.02,8,2,18,0.00
2013-2-5,27.1,23.2,19.8,21.7,14.2,7.9,93,69,58,29.32,29.22,4,1,8,0.00
2013-2-6,37.8,28.0,23.4,24.1,17.3,1.1,97,69,33,29.60,29.21,8,1,17,0.02
2013-2-7,31.1,23.7,16.3,9.2,2.5,-2.8,61,41,24,29.82,29.59,5,1,7,0.00
2013-2-8,31.5,24.7,16.7,31.2,21.6,9.1,99,89,54,29.78,28.89,11,4,15,0.00
2013-2-9,22.1,17.8,12.0,21.7,17.2,9.0,99,97,87,29.50,28.86,8,4,17,0.05
2013-2-10,34.9,14.1,0.0,15.0,8.1,-0.6,87,29,26,29.69,29.49,3,0,7,0.00
2013-2-11,45.3,33.7,21.4,45.1,27.8,3.5,99,81,43,29.64,28.92,5,1,10,0.22
2013-2-12,44.4,38.5,33.1,41.1,29.3,24.9,99,70,51,29.20,28.92,7,2,20,0.00
2013-2-13,43.7,35.4,28.4,26.0,23.2,21.3,76,62,46,29.17,28.99,4,1,8,0.00
2013-2-14,45.3,36.1,28.6,24.4,21.3,16.9,75,56,32,29.29,29.01,4,1,8,0.00
2013-2-15,51.8,39.4,28.8,34.5,31.3,22.8,99,75,49,29.29,29.20,11,2,20,0.00
2013-2-16,36.7,33.8,28.8,34.1,28.6,17.3,99,82,57,29.26,29.00,5,1,11,0.02
2013-2-17,28.8,20.7,14.9,21.3,9.8,-2.6,94,66,35,29.00,28.70,12,4,23,0.00
2013-2-18,30.7,21.3,12.4,0.3,-2.8,-10.8,53,36,18,29.46,29.00,9,3,20,0.00
2013-2-19,48.0,35.7,21.6,43.3,23.0,-2.1,99,63,33,29.47,28.88,9,2,17,0.17
2013-2-20,40.6,31.1,24.4,40.4,18.7,7.8,99,62,35,29.08,28.85,9,3,21,0.02
2013-2-21,34.0,27.0,22.8,16.1,12.8,9.6,70,55,38,29.50,29.07,8,3,19,0.00
2013-2-22,40.3,30.5,21.6,23.5,19.3,15.9,83,64,41,29.68,29.50,6,2,11,0.00
2013-2-23,37.0,32.7,28.8,32.5,28.3,21.7,99,84,73,29.63,29.21,4,1,9,0.00
2013-2-24,33.8,32.7,31.3,33.6,32.5,31.0,99,99,99,29.20,28.99,4,1,8,0.17
2013-2-25,38.5,33.7,28.9,37.0,32.4,28.7,99,95,84,29.54,29.19,2,0,6,0.21
2013-2-26,44.6,36.5,32.5,36.0,30.6,26.8,99,80,55,29.63,29.44,5,2,8,0.04
2013-2-27,41.4,37.8,0.0,41.1,36.9,11.8,99,97,35,29.45,28.88,11,5,17,1.03
2013-2-28,45.5,35.6,0.0,41.7,35.4,10.3,99,92,82,29.60,28.83,2,1,4,12.46
2013-3-1,43.3,35.3,0.0,34.8,31.0,26.8,99,72,60,29.47,29.32,4,1,8,12.46
2013-3-2,41.7,35.4,0.0,28.8,27.3,25.9,78,68,58,29.47,29.41,4,1,8,0.00
2013-3-3,38.1,19.6,0.0,30.9,26.4,4.6,98,50,69,29.43,29.34,98,1,98,0.00
2013-3-4,41.4,34.3,27.1,27.3,23.4,-20.1,83,65,10,29.54,29.37,8,2,14,0.00
2013-3-5,37.8,11.1,0.0,32.9,26.2,25.1,93,23,60,29.85,29.53,2,0,5,0.00
2013-3-6,37.9,35.1,32.5,36.6,33.6,29.7,99,95,73,29.87,29.81,12,5,23,0.08
2013-3-7,33.4,30.9,28.9,32.8,30.6,28.7,99,99,93,29.83,29.76,8,4,12,0.04
2013-3-8,36.9,31.4,28.8,34.3,29.3,22.7,99,93,59,29.93,29.71,8,3,12,0.00
2013-3-9,50.4,37.5,27.9,29.8,22.9,12.6,99,59,22,30.13,29.92,7,2,10,0.12
2013-3-10,46.4,35.1,24.6,34.3,28.9,10.3,99,80,29,30.19,28.79,5,2,8,12.20
2013-3-11,54.9,42.1,34.3,41.6,36.0,31.3,99,81,45,29.29,29.11,7,2,14,0.00
2013-3-12,55.2,48.9,41.0,53.2,48.5,40.7,99,99,90,29.13,28.70,14,3,28,0.35
2013-3-13,51.3,42.7,34.7,49.9,29.4,14.7,99,65,26,28.76,28.67,8,2,13,0.00
2013-3-14,34.7,29.9,21.2,22.4,11.9,2.7,63,47,31,28.81,28.68,8,2,14,0.00
2013-3-15,40.6,29.4,18.1,28.8,12.0,-3.7,86,52,17,28.84,28.60,7,2,13,0.00
2013-3-16,39.7,33.0,27.0,28.9,13.5,1.5,87,48,21,28.84,28.64,5,1,8,0.00
2013-3-17,44.4,29.8,23.5,16.1,6.4,-10.5,65,40,13,29.57,28.83,6,1,13,0.00
2013-3-18,37.9,27.4,16.0,26.6,1.8,-14.4,93,39,10,29.72,29.48,6,1,10,0.00
2013-3-19,34.5,31.0,27.1,34.3,30.7,26.2,99,99,92,29.48,28.88,9,4,14,0.26
2013-3-20,38.7,31.0,24.4,27.6,20.3,13.7,99,68,38,29.09,28.96,9,2,17,0.12
2013-3-21,37.6,29.8,25.0,29.1,21.3,14.6,99,72,44,29.09,28.88,4,0,6,0.00
2013-3-22,41.7,32.4,25.3,25.4,17.5,12.4,87,55,31,29.02,28.88,6,2,21,0.00
2013-3-23,43.3,34.6,28.2,23.7,17.9,12.4,76,52,30,29.08,28.93,10,3,20,0.00
2013-3-24,48.4,38.1,30.6,23.5,20.1,17.0,67,49,31,29.10,28.99,7,2,14,0.00
2013-3-25,44.8,36.0,29.7,31.3,27.6,23.3,82,72,46,29.04,28.77,8,3,12,0.00
2013-3-26,49.1,39.7,34.0,29.4,23.6,15.4,79,55,27,29.06,28.81,6,1,16,0.00
2013-3-27,55.9,42.8,32.7,29.3,20.5,14.0,62,43,19,29.15,29.01,6,2,11,0.00
2013-3-28,47.8,27.7,12.2,37.2,13.2,-11.9,99,58,32,29.30,29.14,4,2,8,0.01
2013-3-29,58.3,34.3,12.2,32.8,10.7,-11.9,63,38,22,29.33,29.24,6,2,11,0.04
2013-3-30,57.4,44.5,0.0,31.2,21.0,-0.5,71,48,10,29.35,29.08,6,2,10,0.00
2013-3-31,59.9,51.9,34.5,43.4,22.9,4.7,99,39,11,29.38,28.98,10,3,20,0.04
2013-4-1,62.8,45.7,33.3,49.3,36.3,7.4,99,74,32,29.07,28.78,9,3,21,0.22
2013-4-2,40.1,33.1,28.0,18.9,11.1,1.8,58,41,20,29.22,29.06,9,3,18,0.00
2013-4-3,45.0,35.6,28.8,16.9,8.7,-3.9,56,35,14,29.43,29.20,8,4,20,0.02
2013-4-4,55.6,41.0,28.2,26.3,10.5,-4.9,63,34,10,29.57,29.31,7,2,13,0.00
2013-4-5,61.9,45.4,36.0,30.6,22.1,2.0,75,47,10,29.32,28.90,7,2,14,0.00
2013-4-6,47.5,38.1,30.7,25.2,2.3,-13.2,59,27,10,29.60,29.15,7,2,14,0.00
2013-4-7,56.1,43.1,29.1,41.7,24.0,6.6,86,49,19,29.60,29.26,14,3,28,0.24
2013-4-8,66.6,53.3,43.3,45.1,38.9,26.9,99,65,24,29.35,29.23,6,2,14,0.00
2013-4-9,72.7,57.5,45.9,55.5,42.4,34.8,99,63,29,29.35,29.13,6,2,13,0.04
2013-4-10,66.2,52.8,44.4,51.4,46.0,-7.3,99,81,10,29.28,29.10,6,1,15,0.18
2013-4-11,50.4,19.3,0.0,47.6,41.7,22.1,99,29,34,29.41,29.08,4,1,6,0.05
2013-4-12,47.7,37.6,36.0,46.9,36.2,10.3,99,95,90,29.42,29.08,9,2,13,0.07
2013-4-13,53.4,43.7,34.5,42.8,35.7,32.6,99,77,47,29.45,29.25,7,1,12,0.05
2013-4-14,54.7,44.8,37.9,39.9,31.0,6.5,95,62,14,29.73,29.43,7,1,98,0.00
2013-4-15,59.9,46.5,33.8,37.7,29.0,25.2,83,53,27,29.90,29.73,6,1,11,0.00
2013-4-16,66.9,52.0,33.8,52.1,41.1,11.4,99,70,28,29.91,29.58,13,3,30,0.11
2013-4-17,67.5,58.3,51.4,54.2,37.8,14.2,97,60,13,29.85,29.58,5,2,13,0.00
2013-4-18,64.4,52.4,41.5,45.2,29.1,18.2,79,44,20,29.93,29.65,10,3,21,0.00
2013-4-19,74.5,62.2,51.1,65.1,58.7,45.3,99,89,59,29.66,29.17,13,4,30,0.13
2013-4-20,64.8,53.1,42.3,64.5,39.4,22.0,99,65,28,29.74,29.12,11,2,22,0.66
2013-4-21,53.2,42.9,32.5,28.7,17.4,3.7,68,39,13,30.18,29.74,6,2,14,0.00
2013-4-22,51.6,41.6,31.5,34.0,28.2,15.9,92,63,25,30.24,30.09,11,4,16,0.00
2013-4-23,40.8,39.2,37.0,40.6,37.3,30.4,99,93,72,30.09,29.62,7,3,10,0.01
2013-4-24,75.4,55.4,39.9,52.4,42.5,23.6,99,71,16,29.62,29.31,11,2,21,0.02
2013-4-25,65.1,55.0,46.4,55.9,31.8,9.0,99,50,14,29.79,29.34,8,2,18,0.02
2013-4-26,63.3,50.3,38.5,39.2,31.1,21.1,84,50,25,29.94,29.78,7,2,11,0.00
2013-4-27,66.2,51.5,36.3,44.6,34.6,23.2,99,60,21,29.94,29.79,7,1,13,0.00
2013-4-28,72.0,55.2,39.6,44.1,30.9,18.6,95,48,14,29.86,29.72,8,1,16,0.00
2013-4-29,69.6,57.1,45.7,47.8,32.2,7.3,92,47,14,29.79,29.70,9,2,14,0.00
2013-4-30,72.0,58.2,45.7,35.4,18.5,4.3,55,25,10,29.88,29.76,5,1,10,0.00
2013-5-1,71.1,57.1,40.1,41.6,28.4,19.0,75,38,15,29.99,29.88,6,1,9,0.00
2013-5-2,79.5,58.5,45.3,47.0,37.6,21.7,92,54,12,30.00,29.83,10,2,14,0.00
2013-5-3,61.7,50.8,41.9,43.1,39.7,36.8,92,67,45,30.03,29.89,8,2,11,0.00
2013-5-4,63.1,50.3,39.2,44.3,36.3,8.9,99,64,18,29.89,28.81,7,2,11,34.62
2013-5-5,63.3,48.6,34.7,45.1,38.2,10.3,99,71,29,29.33,28.82,5,2,8,0.00
2013-5-6,75.2,56.7,38.7,52.1,42.0,-3.8,99,66,10,29.29,29.13,5,1,74,0.00
2013-5-7,80.1,64.4,47.3,57.5,51.6,46.1,99,67,35,29.19,29.08,7,1,12,0.00
2013-5-8,69.6,61.0,56.8,68.6,59.5,55.9,99,95,72,29.20,29.05,9,1,15,0.01
2013-5-9,68.2,60.3,56.5,65.6,59.7,56.2,99,98,86,29.05,28.88,4,0,5,0.26
2013-5-10,81.0,67.2,53.6,66.5,54.3,45.7,99,69,32,28.97,28.88,105,1,105,0.00
2013-5-11,69.8,63.1,57.6,65.2,60.2,54.0,99,91,69,28.93,28.70,9,2,17,0.19
2013-5-12,71.8,60.6,48.0,62.2,51.3,3.9,99,75,39,28.83,28.56,5,1,11,0.11
2013-5-13,59.2,49.4,40.6,33.4,28.5,21.1,69,46,23,29.68,28.82,5,1,12,0.00
2013-5-14,61.7,49.0,37.8,35.1,29.7,22.2,73,50,23,29.06,28.98,97,1,97,0.00
2013-5-15,66.4,52.1,36.9,54.4,39.3,22.9,99,67,23,29.07,28.69,8,1,21,0.05
2013-5-16,83.3,68.3,52.5,56.5,36.3,18.0,99,41,10,28.82,28.64,5,1,19,0.00
2013-5-17,71.1,60.2,49.3,44.1,38.6,26.2,76,48,24,29.23,28.81,4,1,11,0.00
2013-5-18,73.4,60.0,45.7,49.8,42.1,29.9,99,58,22,29.32,29.22,4,0,11,0.00
2013-5-19,72.1,59.1,48.6,55.9,50.4,45.0,99,76,41,29.35,29.22,5,1,14,0.11
2013-5-20,82.9,68.8,55.4,67.0,61.3,55.1,99,80,50,29.22,28.92,4,1,11,0.02
2013-5-21,90.9,66.3,40.1,70.5,60.1,7.9,99,84,22,29.38,28.83,5,1,10,0.01
2013-5-22,76.5,59.3,49.3,69.5,57.4,49.0,99,94,76,29.43,29.24,4,1,10,0.08
2013-5-23,75.4,65.6,55.2,74.2,63.9,54.6,99,95,81,29.30,29.17,8,2,20,0.39
2013-5-24,72.5,62.8,48.0,70.1,61.4,43.2,99,95,35,29.20,29.03,4,1,14,0.38
2013-5-25,50.7,46.6,40.1,50.5,46.3,39.8,99,99,99,29.20,29.08,4,1,11,0.44
2013-5-26,61.3,48.4,38.3,44.1,40.3,36.3,99,76,44,29.49,29.10,5,1,17,0.05
2013-5-27,72.9,58.3,41.9,43.9,37.1,20.6,99,53,16,29.54,29.44,4,1,12,0.00
2013-5-28,78.1,62.1,46.4,55.5,43.4,28.7,91,56,19,29.61,29.52,4,1,9,0.00
2013-5-29,77.0,63.8,57.2,70.4,62.5,55.5,99,96,77,29.56,29.36,5,0,12,0.87
2013-5-30,88.5,75.4,63.0,75.7,67.3,62.5,99,79,50,29.47,29.39,4,0,12,0.01
2013-5-31,94.6,81.1,67.8,75.2,66.5,57.8,99,67,31,29.48,29.33,4,0,10,0.00
2013-6-1,91.8,79.8,67.8,68.5,65.3,60.9,86,63,38,29.37,29.25,6,1,15,0.00
2013-6-2,89.2,76.6,68.0,71.1,67.0,60.6,99,75,41,29.27,29.11,11,2,27,0.13
2013-6-3,79.5,69.0,60.8,72.3,64.4,44.2,99,87,54,29.23,29.14,4,0,8,0.58
2013-6-4,72.3,62.0,50.5,48.7,43.2,38.8,72,51,34,29.48,29.21,4,1,10,0.00
2013-6-5,75.9,63.0,50.0,51.4,46.3,37.6,89,58,29,29.57,29.47,4,0,10,0.00
2013-6-6,74.3,62.7,52.2,54.7,49.0,42.4,93,63,36,29.57,29.47,7,1,15,0.01
2013-6-7,58.8,55.0,32.0,58.6,54.7,31.8,99,99,89,29.48,29.17,4,1,14,2.07
2013-6-8,79.5,62.9,52.2,66.7,58.1,51.9,99,86,58,29.39,29.00,4,1,10,0.60
2013-6-9,81.0,68.2,57.2,60.8,56.7,10.3,99,71,39,29.50,29.02,4,0,9,27.86
2013-6-10,69.8,62.1,0.0,64.3,59.2,54.0,99,89,68,29.41,29.21,2,0,4,0.72
2013-6-11,64.0,58.6,56.1,63.8,58.4,55.7,99,99,99,29.21,28.77,3,1,4,0.94
2013-6-12,69.8,62.6,56.8,61.0,55.9,52.1,99,80,59,29.03,28.77,4,1,14,0.00
2013-6-13,63.0,56.0,50.7,61.8,55.1,50.5,99,97,85,29.03,28.87,3,0,5,0.87
2013-6-14,74.1,59.5,50.7,61.1,54.4,50.5,99,85,51,28.98,28.83,4,1,8,0.89
2013-6-15,79.3,67.2,55.9,55.2,47.9,36.8,85,55,24,29.16,28.98,4,0,8,0.00
2013-6-16,75.6,67.0,54.9,63.9,54.1,43.7,83,64,44,29.16,28.93,7,1,13,0.00
2013-6-17,86.0,70.4,59.9,66.7,60.8,53.8,99,77,36,29.12,28.98,5,1,14,0.14
2013-6-18,78.3,63.4,58.6,70.7,61.9,58.4,99,96,67,29.14,29.05,4,0,7,1.49
2013-6-19,76.1,63.7,54.7,63.5,54.7,47.1,99,76,41,29.36,29.11,2,0,7,0.13
2013-6-20,79.5,66.4,51.4,57.4,52.2,42.2,99,66,27,29.46,29.36,4,0,10,0.00
2013-6-21,84.9,71.4,55.2,65.3,60.0,52.9,92,70,43,29.47,29.39,4,1,11,0.00
2013-6-22,84.7,72.5,60.8,64.5,59.5,56.1,86,65,40,29.43,29.32,4,1,11,0.00
2013-6-23,89.1,76.1,64.0,72.4,65.6,56.8,87,71,51,29.38,29.22,5,1,14,0.00
2013-6-24,93.4,79.7,68.7,77.0,71.1,64.6,99,78,47,29.26,29.10,4,1,10,0.07
2013-6-25,92.5,78.1,67.1,73.2,69.7,66.1,99,79,45,29.16,28.96,5,1,13,0.02
2013-6-26,87.4,76.0,40.1,76.9,70.3,8.0,99,84,23,29.36,28.94,4,0,8,22.58
2013-6-27,71.8,66.4,63.7,71.5,66.1,63.4,99,99,99,29.37,29.25,2,0,3,0.18
2013-6-28,83.3,71.4,62.6,78.7,68.6,62.3,99,92,68,29.26,28.98,8,1,15,0.28
2013-6-29,83.8,74.8,69.8,75.3,70.1,65.9,99,87,58,29.23,29.02,7,1,16,0.00
2013-6-30,86.2,76.0,69.8,75.6,71.8,69.5,99,88,59,29.44,29.23,8,1,14,0.04
2013-7-1,81.7,74.7,70.9,81.5,74.1,70.6,99,98,86,29.59,29.44,5,1,10,0.14
2013-7-2,84.2,75.9,68.0,77.8,73.5,67.3,99,92,73,29.70,29.58,5,1,11,0.00
2013-7-3,89.1,75.8,64.2,77.2,71.9,64.0,99,89,60,29.72,29.65,4,1,14,0.00
2013-7-4,92.1,81.5,72.5,80.9,74.4,71.9,99,82,53,29.70,29.60,5,1,11,0.00
2013-7-5,47.1,41.4,35.2,40.3,29.7,24.5,92,63,52,29.23,28.88,5,2,8,0.01
2013-7-6,51.6,42.9,35.1,31.4,14.5,-6.5,82,39,10,29.30,29.21,6,2,11,0.00
2013-7-7,41.2,35.7,30.0,36.7,32.2,28.5,95,87,74,29.24,29.11,3,1,5,0.07
2013-7-8,52.5,42.9,32.0,39.5,36.1,29.9,97,80,44,29.12,28.84,3,1,9,0.14
2013-7-9,74.5,65.1,37.2,74.1,60.6,7.9,99,89,19,29.33,28.91,7,1,11,0.01
2013-7-10,85.8,74.3,66.9,80.7,72.2,66.7,99,94,70,29.32,29.05,6,1,14,0.09
2013-7-11,82.2,75.6,71.1,79.6,74.0,70.8,99,95,81,29.19,29.03,4,0,7,0.22
2013-7-12,75.2,69.7,65.3,70.8,63.6,58.6,99,81,67,29.45,29.18,3,1,6,0.00
2013-7-13,75.6,69.4,64.4,75.3,68.6,60.6,99,97,83,29.56,29.44,2,0,2,0.02
2013-7-14,90.1,79.6,70.7,81.3,73.1,70.4,99,82,55,29.55,29.46,2,0,6,0.01
2013-7-15,90.7,81.1,73.2,79.3,74.9,70.3,99,83,57,29.47,29.35,2,0,4,0.00
2013-7-16,92.3,81.3,71.4,74.5,70.4,66.1,98,72,44,29.42,29.36,4,0,7,0.00
2013-7-17,95.4,82.8,72.1,77.4,72.4,65.9,99,75,39,29.44,29.26,4,0,9,0.00
2013-7-18,96.3,84.9,75.9,78.3,74.1,66.1,97,73,40,29.27,29.18,4,0,7,0.00
2013-7-19,97.7,85.7,75.9,79.7,76.2,70.1,99,76,44,29.21,28.98,5,1,12,0.00
2013-7-20,93.7,82.9,72.5,80.7,75.6,66.4,99,80,48,29.06,28.91,4,1,11,0.07
2013-7-21,87.3,76.0,68.9,69.6,66.8,63.6,89,74,50,29.23,29.06,2,0,4,0.00
2013-7-22,85.5,73.6,40.1,74.5,68.3,7.9,99,86,22,29.35,29.11,4,1,7,21.45
2013-7-23,84.6,73.0,68.9,83.4,72.6,68.6,99,99,88,29.22,28.88,4,0,8,0.72
2013-7-24,84.9,75.7,66.6,79.1,68.4,56.9,99,80,51,29.29,28.92,3,0,8,0.00
2013-7-25,66.4,59.4,57.6,59.7,55.3,49.7,99,87,69,29.44,29.29,2,1,7,0.53
2013-7-26,71.4,63.7,59.0,71.0,63.5,58.7,99,99,99,29.39,29.29,3,0,8,0.28
2013-7-27,84.6,70.9,59.9,72.1,64.6,59.6,99,83,50,29.41,29.33,4,0,7,0.01
2013-7-28,86.5,72.3,63.9,74.6,68.6,63.6,99,90,55,29.37,29.29,3,0,4,0.00
2013-7-29,84.9,73.0,65.1,76.2,70.5,64.9,99,92,66,29.39,29.30,5,0,11,0.11
2013-7-30,83.8,71.1,61.0,67.7,60.8,54.4,99,73,39,29.44,29.38,4,0,7,0.00
2013-7-31,82.6,71.3,61.2,65.3,61.0,54.9,96,73,40,29.48,29.38,2,0,6,0.00
2013-8-1,80.1,69.2,61.3,72.2,64.6,61.1,99,87,58,29.40,29.22,6,1,11,0.00
2013-8-2,83.5,72.1,64.2,74.2,64.7,58.4,99,80,47,29.24,29.14,3,0,8,0.28
2013-8-3,79.0,70.1,64.0,67.2,64.2,60.6,99,83,55,29.22,29.12,4,1,10,0.00
2013-8-4,81.3,68.2,58.3,63.6,57.9,52.6,99,73,41,29.24,29.11,4,0,7,0.00
2013-8-5,77.2,65.1,55.4,56.0,48.5,37.2,90,60,24,29.39,29.23,4,1,10,0.00
2013-8-6,80.2,66.1,52.3,57.6,52.4,46.4,93,65,33,29.49,29.39,3,0,7,0.00
2013-8-7,80.6,68.3,57.2,66.4,56.4,42.8,99,70,28,29.53,29.44,5,1,10,0.00
2013-8-8,80.4,71.7,64.9,74.3,68.9,59.2,99,91,76,29.47,29.35,4,1,10,0.08
2013-8-9,75.9,72.8,70.3,75.7,72.5,70.1,99,99,99,29.37,29.09,6,1,17,1.09
2013-8-10,83.7,73.1,63.9,71.9,61.8,50.1,99,72,38,29.34,29.14,4,1,11,0.01
2013-8-11,79.9,67.9,55.6,61.0,55.6,47.1,97,68,38,29.43,29.33,4,0,8,0.00
2013-8-12,83.5,70.6,59.7,67.7,60.1,53.3,99,74,38,29.37,29.25,4,0,7,0.00
2013-8-13,74.7,68.2,63.9,71.7,66.7,63.0,99,95,78,29.28,29.02,2,0,5,0.01
2013-8-14,75.0,66.1,57.9,65.2,54.9,49.8,99,69,45,29.32,29.00,5,1,11,0.00
2013-8-15,78.1,64.7,53.6,57.2,53.1,47.7,99,70,37,29.46,29.31,4,0,8,0.00
2013-8-16,80.8,66.9,54.5,59.5,54.8,49.4,95,69,35,29.54,29.45,3,0,9,0.00
2013-8-17,81.5,68.8,57.2,63.1,58.8,55.4,99,73,44,29.62,29.54,2,0,4,0.00
2013-8-18,79.9,68.8,61.2,66.6,60.7,54.1,95,77,43,29.62,29.43,4,0,7,0.00
2013-8-19,82.6,71.0,60.3,66.5,61.3,55.2,99,74,41,29.43,29.29,3,0,7,0.00
2013-8-20,87.3,74.6,64.0,65.3,61.8,54.6,92,67,34,29.44,29.32,4,0,8,0.00
2013-8-21,88.9,75.4,63.7,68.2,63.4,57.9,94,69,38,29.49,29.38,4,0,8,0.00
2013-8-22,85.5,74.8,64.4,72.8,69.0,63.2,99,83,60,29.39,29.18,4,1,10,0.00
2013-8-23,81.7,72.2,62.8,71.0,60.4,50.9,99,70,38,29.47,29.17,4,0,8,0.00
2013-8-24,79.5,66.0,52.9,53.5,48.0,36.8,91,57,22,29.68,29.47,3,0,6,0.00
2013-8-25,84.4,68.9,54.9,59.5,52.1,38.7,96,61,20,29.70,29.53,4,0,8,0.00
2013-8-26,80.1,71.1,64.2,68.1,62.5,56.5,94,75,57,29.54,29.22,4,1,11,0.01
2013-8-27,83.8,72.7,67.6,79.1,69.5,65.6,99,90,62,29.25,29.17,3,0,4,0.19
2013-8-28,87.1,73.4,63.5,74.8,66.7,63.2,99,82,46,29.31,29.18,3,0,4,0.00
2013-8-29,66.9,64.2,60.4,66.7,63.9,60.2,99,99,99,29.41,29.28,3,1,4,0.00
2013-8-30,83.7,70.2,60.6,71.3,65.7,60.4,99,87,57,29.37,29.18,4,0,11,0.00
2013-8-31,79.5,73.8,68.5,77.5,73.2,68.3,99,98,89,29.19,29.13,6,1,12,0.02
2013-9-1,77.2,72.0,68.5,76.9,71.7,68.3,99,99,99,29.22,29.13,4,0,9,1.02
2013-9-2,81.5,74.0,71.2,79.7,73.6,70.8,99,98,88,29.21,29.05,5,0,9,0.06
2013-9-3,80.6,71.8,63.3,76.2,69.8,59.1,99,94,69,29.17,29.03,4,0,9,0.01
2013-9-4,80.8,68.7,59.2,64.7,58.6,54.9,99,73,43,29.27,29.15,4,0,9,0.00
2013-9-5,69.3,63.0,52.3,64.3,55.3,43.6,99,78,43,29.48,29.20,2,0,7,0.04
2013-9-6,70.3,57.1,46.0,47.6,43.3,33.7,85,63,27,29.59,29.43,4,0,8,0.00
2013-9-7,79.5,64.0,50.7,56.0,49.6,41.2,85,63,27,29.44,29.20,4,0,10,0.00
2013-9-8,77.5,64.8,51.3,63.4,53.2,40.6,95,68,38,29.44,28.97,4,1,10,0.00
2013-9-9,69.8,57.0,44.1,50.8,44.8,40.3,92,67,35,29.58,29.43,3,0,8,0.00
2013-9-10,75.2,66.2,55.2,73.9,64.7,50.8,99,95,85,29.50,29.37,5,1,13,0.05
2013-9-11,95.0,80.0,69.6,78.0,72.9,68.0,99,81,47,29.41,29.29,4,1,11,0.00
2013-9-12,86.5,76.4,67.5,77.0,71.4,66.9,99,86,61,29.33,29.03,8,1,17,0.60
2013-9-13,80.8,68.6,59.9,75.1,66.1,58.8,99,93,62,29.10,28.91,3,0,6,0.06
2013-9-14,69.1,59.6,52.7,59.1,54.3,50.8,99,84,58,29.40,29.10,3,0,9,0.00
2013-9-15,72.0,58.8,47.7,56.0,50.5,43.7,99,77,38,29.50,29.39,4,0,8,0.00
2013-9-16,70.3,58.0,47.5,61.3,51.8,38.3,99,81,61,29.59,29.36,3,0,8,0.04
2013-9-17,63.0,50.5,39.7,44.6,39.5,35.8,88,68,40,29.76,29.58,4,0,10,0.00
2013-9-18,73.9,57.8,43.3,50.9,44.6,34.8,96,67,25,29.67,29.48,4,0,8,0.00
2013-9-19,80.1,63.6,49.8,55.9,50.9,45.4,92,67,33,29.49,29.38,4,0,7,0.00
2013-9-20,81.9,64.8,51.6,60.4,53.5,44.8,99,72,30,29.43,29.33,3,0,7,0.00
2013-9-21,75.4,65.2,55.8,68.3,61.5,55.5,99,89,58,29.37,29.06,8,1,19,0.00
2013-9-22,72.7,64.0,50.0,70.6,57.7,46.0,99,82,49,29.18,28.94,5,1,13,0.37
2013-9-23,65.5,52.1,44.2,46.6,43.1,40.4,95,73,45,29.35,29.17,3,0,8,0.00
2013-9-24,69.3,53.8,40.8,45.8,42.0,37.5,95,67,35,29.34,29.14,4,0,9,0.00
2013-9-25,70.2,56.4,46.6,53.3,48.3,43.6,92,76,51,29.32,29.21,3,0,8,0.00
2013-9-26,67.1,57.4,52.5,51.6,49.4,45.9,91,76,47,29.46,29.32,3,0,5,0.00
2013-9-27,65.1,57.7,51.4,55.3,52.8,51.0,99,84,67,29.60,29.45,2,0,4,0.00
2013-9-28,74.7,58.6,48.0,60.7,52.3,47.8,99,82,47,29.67,29.59,3,0,4,0.00
2013-9-29,70.2,55.0,44.2,60.0,47.8,41.7,99,81,37,29.60,29.45,4,0,6,0.00
2013-9-30,69.8,55.5,46.0,58.1,49.4,45.6,99,83,45,29.46,29.30,2,0,4,0.00
2013-10-1,79.5,63.1,48.0,59.1,52.5,47.1,99,73,33,29.30,29.18,4,0,8,0.00
2013-10-2,81.0,67.6,56.5,61.6,57.7,54.0,95,73,47,29.30,29.17,4,1,9,0.00
2013-10-3,78.1,64.8,54.9,56.8,49.8,36.1,88,63,25,29.43,29.30,4,0,6,0.00
2013-10-4,62.4,58.7,54.5,62.0,54.2,47.0,99,86,64,29.44,29.37,2,0,4,0.33
2013-10-5,68.9,61.4,56.8,65.9,59.7,56.6,99,94,81,29.47,29.39,4,0,5,0.04
2013-10-6,59.7,56.2,54.3,59.5,55.9,54.1,99,99,99,29.55,29.43,3,1,5,0.41
2013-10-7,77.2,64.6,55.4,75.9,63.0,55.1,99,95,78,29.46,29.15,11,2,27,0.09
2013-10-8,67.1,57.1,46.4,56.7,45.8,38.7,93,68,43,29.70,29.24,4,0,8,0.00
2013-10-9,62.4,50.4,40.8,47.4,43.4,39.6,99,79,45,29.80,29.69,4,1,9,0.00
2013-10-10,62.1,51.4,42.1,55.7,49.3,41.8,99,93,73,29.70,29.51,2,0,4,0.00
2013-10-11,71.1,57.5,49.1,57.3,51.1,45.4,99,81,51,29.51,29.41,4,1,5,0.00
2013-10-12,60.8,53.5,46.9,60.5,52.7,46.7,99,97,82,29.72,29.47,4,1,8,0.00
2013-10-13,59.7,50.7,43.3,52.3,47.6,43.1,99,90,69,29.77,29.69,4,0,7,0.00
2013-10-14,66.4,50.5,36.7,54.4,42.7,36.1,99,79,33,29.73,29.58,3,0,7,0.01
2013-10-15,66.7,56.5,49.3,55.6,50.8,47.3,99,83,58,29.60,29.50,2,0,4,0.00
2013-10-16,61.2,54.1,48.6,59.3,52.5,48.3,99,95,82,29.51,29.25,2,0,4,0.00
2013-10-17,73.9,61.4,51.1,66.5,58.0,50.8,99,90,59,29.25,29.06,4,0,10,0.01
2013-10-18,68.7,60.5,49.6,62.0,50.9,41.8,99,73,42,29.25,28.95,5,1,14,0.02
2013-10-19,67.1,54.7,43.0,47.1,41.6,35.2,87,64,32,29.31,29.08,4,0,11,0.00
2013-10-20,63.3,53.3,43.7,53.2,39.5,27.2,99,64,27,29.36,29.03,4,1,11,0.05
2013-10-21,68.4,53.5,41.5,44.3,37.8,33.9,79,58,30,29.45,29.32,5,0,13,0.00
2013-10-22,65.8,54.1,45.3,55.7,46.7,38.0,99,78,52,29.33,29.05,5,1,11,0.00
2013-10-23,50.5,44.8,37.8,38.6,35.0,31.8,89,70,49,29.14,28.92,2,0,5,0.00
2013-10-24,55.2,44.8,37.0,35.1,28.6,17.7,89,56,27,29.88,28.98,6,1,11,0.00
2013-10-25,50.0,41.2,34.2,35.4,28.2,24.4,90,62,39,29.49,29.22,4,1,11,0.00
2013-10-26,55.6,43.9,32.0,35.0,29.0,17.8,91,60,23,29.49,29.20,8,1,21,0.00
2013-10-27,57.7,46.8,38.3,38.8,33.0,26.0,86,60,36,29.40,29.14,4,1,9,0.01
2013-10-28,59.2,44.9,33.6,33.4,30.5,23.6,85,59,33,29.68,29.40,7,1,17,0.00
2013-10-29,51.4,38.4,28.9,28.4,21.2,11.4,77,53,23,29.78,29.68,3,0,6,0.00
2013-10-30,55.6,43.5,34.7,42.1,35.5,28.7,91,74,56,29.70,29.52,3,0,8,0.00
2013-10-31,61.9,51.1,38.3,61.6,50.6,38.0,99,98,89,29.57,29.13,7,1,15,0.05
2013-11-1,68.9,63.5,57.4,66.2,60.1,53.8,99,89,65,29.13,28.80,14,3,34,0.48
2013-11-2,68.7,56.6,47.7,56.1,44.0,35.0,97,67,29,29.07,28.92,4,0,7,0.00
2013-11-3,50.2,41.4,30.7,47.1,28.0,9.0,92,62,25,29.74,29.06,4,1,9,0.00
2013-11-4,43.3,33.1,26.8,20.7,14.2,5.8,76,48,24,30.02,29.74,6,1,8,0.00
2013-11-5,51.4,38.4,25.9,33.7,26.6,20.3,87,65,36,30.04,29.83,4,0,8,0.00
2013-11-6,61.3,50.2,39.6,51.7,41.9,33.3,95,75,46,29.84,29.38,8,1,19,0.00
2013-11-7,64.8,53.3,39.0,61.3,51.3,33.4,99,93,74,29.38,29.02,8,2,17,0.21
2013-11-8,49.3,38.9,32.4,35.3,26.4,19.9,80,61,43,29.43,29.15,6,1,13,0.00
2013-11-9,46.2,36.9,27.3,28.7,23.7,18.5,79,60,34,29.54,29.35,4,1,11,0.00
2013-11-10,55.6,45.3,39.9,44.3,35.3,28.7,99,70,48,29.35,29.08,6,1,11,0.02
2013-11-11,52.3,44.7,37.4,30.4,25.4,18.4,62,48,28,29.44,29.20,6,2,15,0.00
2013-11-12,49.3,34.8,25.5,39.7,24.5,12.4,99,68,44,29.52,29.22,7,1,14,0.11
2013-11-13,37.2,28.3,21.9,14.8,11.0,3.4,70,50,28,29.62,29.49,4,1,11,0.00
2013-11-14,51.1,39.7,27.7,17.6,13.8,8.3,58,37,21,29.49,29.38,5,2,10,0.00
2013-11-15,60.6,47.8,38.5,30.6,11.9,-1.9,58,27,10,29.53,29.44,6,2,17,0.00
2013-11-16,61.3,49.0,41.4,36.0,21.6,3.5,76,38,10,29.65,29.52,3,0,8,0.00
2013-11-17,56.3,45.8,37.2,49.6,42.9,35.0,99,90,69,29.64,29.17,2,0,4,0.06
2013-11-18,65.8,58.4,46.8,62.2,45.8,29.1,99,67,36,29.18,28.88,8,2,16,0.21
2013-11-19,47.7,39.2,29.7,30.2,20.2,14.9,57,47,32,29.60,29.00,8,2,19,0.00
2013-11-20,41.7,31.8,25.9,16.3,10.8,1.9,60,44,20,29.95,29.60,4,1,10,0.00
2013-11-21,48.7,35.9,23.9,33.7,19.1,13.3,73,52,27,29.96,29.70,5,1,8,0.00
2013-11-22,46.9,44.5,41.7,46.7,42.6,33.7,99,93,73,29.70,29.16,2,0,5,0.12
2013-11-23,47.8,39.7,27.5,47.6,24.6,8.9,99,58,28,29.25,29.13,7,2,16,0.00
2013-11-24,27.5,22.5,18.3,17.9,-1.7,-23.9,75,38,10,29.52,29.13,10,4,24,0.00
2013-11-25,33.3,24.2,15.1,15.7,-2.8,-22.0,53,32,10,29.69,29.52,6,2,13,0.00
2013-11-26,39.7,34.7,30.7,35.9,18.4,10.4,99,54,35,29.65,29.35,8,1,14,0.09
2013-11-27,62.1,49.2,35.6,61.8,48.8,32.4,99,98,88,29.35,28.55,13,3,31,1.85
2013-11-28,36.1,29.4,23.2,32.4,10.2,-7.5,88,47,20,29.76,28.81,9,3,20,0.00
2013-11-29,35.2,26.5,19.6,12.9,4.6,-6.4,62,40,23,30.07,29.76,4,1,8,0.00
2013-11-30,33.1,23.8,12.7,18.2,7.4,-1.3,68,50,34,30.11,29.74,6,1,9,0.00
2013-12-1,34.9,32.2,28.8,34.6,28.8,18.2,99,88,64,29.74,29.32,2,0,4,0.07
2013-12-2,38.7,36.3,34.5,38.4,36.0,34.3,99,99,99,29.34,29.25,2,0,4,0.01
2013-12-3,50.2,38.7,32.7,45.8,34.1,29.3,99,85,56,29.29,29.17,3,1,8,0.00
2013-12-4,46.0,36.6,29.8,30.4,27.0,23.4,93,70,44,29.52,29.29,4,0,8,0.00
2013-12-5,55.0,40.1,33.3,54.8,37.1,25.4,99,89,66,29.53,29.24,8,1,12,0.02
2013-12-6,56.8,48.0,33.1,56.2,46.2,32.8,99,94,74,29.47,29.19,6,1,14,0.30
2013-12-7,38.7,32.5,26.2,35.2,27.0,17.7,99,81,60,29.78,29.40,5,1,9,0.18
2013-12-8,30.4,26.9,22.1,17.7,12.9,9.6,70,56,43,29.91,29.77,3,0,4,0.00
2013-12-9,34.9,30.3,24.4,34.6,28.2,11.4,99,93,52,29.81,29.22,4,1,5,0.01
2013-12-10,33.3,30.2,23.0,32.8,29.0,15.2,99,96,70,29.33,29.11,2,0,4,0.00
2013-12-11,29.8,24.2,19.8,17.2,14.5,12.9,82,66,52,29.54,29.32,0,0,0,0.00
2013-12-12,25.9,19.7,12.0,13.2,-0.5,-14.2,71,44,18,29.60,29.38,4,0,8,0.00
2013-12-13,29.1,21.2,14.0,10.9,3.2,-1.1,57,45,29,29.70,29.32,7,2,14,0.00
2013-12-14,19.2,12.7,9.1,14.4,-2.1,-16.9,81,53,24,29.90,29.44,3,1,5,0.00
2013-12-15,32.7,25.8,18.3,32.3,24.1,13.2,99,93,78,29.44,28.77,8,2,12,0.00
2013-12-16,27.9,22.3,14.0,19.3,6.2,-5.0,86,53,26,29.51,29.07,6,1,14,0.00
2013-12-17,17.1,11.2,4.1,11.8,2.4,-5.6,80,67,54,29.59,29.24,3,1,5,0.00
2013-12-18,33.6,24.6,14.7,24.1,15.8,9.5,86,70,50,29.41,29.19,4,1,12,0.06
2013-12-19,43.9,33.5,14.5,18.2,14.9,-4.3,68,48,25,29.44,29.28,14,2,14,0.12
2013-12-20,55.2,42.1,0.0,27.7,22.5,17.2,58,46,23,29.43,29.24,5,1,13,0.01
2013-12-21,57.6,49.7,42.4,47.6,38.0,26.7,85,64,50,29.29,29.19,6,2,14,0.00
2013-12-22,66.0,49.0,34.9,65.2,48.3,34.6,99,97,67,29.34,29.10,6,2,14,0.00
2013-12-23,38.3,33.8,31.8,38.0,33.6,31.6,99,99,99,29.41,29.27,3,1,6,0.44
2013-12-24,38.3,31.7,25.0,37.9,21.0,5.2,99,68,34,29.52,29.36,5,1,11,0.02
2013-12-25,32.0,18.8,14.0,13.1,-5.8,-14.5,49,33,19,29.85,29.52,6,2,14,0.00
2013-12-26,52.2,22.1,18.3,51.9,4.1,-19.2,99,49,10,29.80,29.31,7,1,101,0.00
2013-12-27,34.2,28.1,23.0,18.4,13.3,8.9,74,55,37,29.52,29.42,4,1,11,0.02
2013-12-28,48.0,35.5,25.9,19.5,15.9,-15.8,66,47,22,29.45,29.23,98,1,98,0.00
2013-12-29,43.3,37.7,31.1,38.0,27.0,16.3,99,68,44,29.26,28.65,7,1,11,0.80
2013-12-30,40.5,31.5,17.4,36.4,18.4,1.2,99,64,22,29.39,28.77,98,3,16,0.01
2013-12-31,26.1,18.5,11.8,9.6,0.6,-8.0,63,46,24,29.41,29.23,4,1,8,0.00
2014-1-1,28.6,21.1,15.4,5.0,-2.8,-7.8,53,35,21,29.60,29.40,4,1,11,0.00
2014-1-2,19.2,10.9,0.1,11.7,4.5,-6.6,80,75,53,29.57,29.05,8,3,12,0.00